sat.trackr.live / text

‹ back to catalog

STARLINK-5079

NORAD 53999 · 2022-125AM

PAYLOAD ACTIVE UNKNOWN

§ Identity

Operator
Country
US
Launch date
2022-10-05
Launch site
AFWTR
Launch vehicle
Mass (kg)
RCS (m²)

Purposes: comms

External: N2YO · Heavens-Above · Gunter

§ Orbital elements

Epoch: 2026-09-20T13:48:32.072544Z

Period
93.85 min
Inclination
53.1588°
Eccentricity
0.0000846
Mean motion
15.34391630 rev/d
Perigee alt
462.1 km
Apogee alt
463.3 km
Semi-major
6,840.9 km
B*
-8.0111e-5
RAAN
51.5756°
Arg perigee
87.6737°
Mean anomaly
272.4362°
Rev number
21,898

§ Raw data

STARLINK-50791 53999U 22125AM  26263.57537121 -.00003081  00000+0 -80111-4 0  99952 53999  53.1588  51.5756 0000846  87.6737 272.4362 15.34391630218981

JSON: /api/v1/satellites/53999 · /tle

For live sub-satellite position, see the globe view (requires WebGL).

§ Visibility from observer

Set your observer location to see the next 7 days of passes ≥ 10°. The values pass through the URL so the page stays shareable.

No JS? Fill the form by hand. The geolocation button needs JavaScript.